Regional Weather Roundup
Issued by NWS Green Bay, WI

Home | Current Version | Previous Version | Graphics & Text | Print | Product List | Glossary Off
Versions: 1 2 3 4 5 6 7 8 9 10 11 12 13 14 15 16 17 18 19 20 21 22 23 24 25 26 27 28 29 30 31 32 33 34 35 36 37 38 39 40 41 42 43 44 45 46 47 48 49 50

000
ASUS43 KGRB 290410
RWRGRB

NORTH-CENTRAL AND NORTHEAST WISCONSIN REGIONAL WEATHER ROUNDUP
NATIONAL WEATHER SERVICE GREEN BAY WI
1000 PM CST WED JAN 28 2015

WIZ005-009-010>012-018-019-290500-
NORTH CENTRAL WISCONSIN

CITY           SKY/WX    TMP DP  RH WIND       PRES   REMARKS
IRONWOOD       CLOUDY    28  21  74 SW3       29.79F
MANITOWISH WTR CLOUDY    26  21  80 S6        29.79F
ARBOR VITAE    CLOUDY    29  22  77 S5        29.80F
EAGLE RIVER    CLOUDY    26  20  76 S3        29.80F
LAND O LAKES   CLOUDY    28  22  78 CALM      29.81F
RHINELANDER    CLOUDY    26  20  77 S7        29.81F
PHILLIPS       CLOUDY    27  21  77 S6        29.79F
ANTIGO         CLOUDY    25  22  87 S10       29.82F
TOMAHAWK       CLOUDY    26  20  78 CALM      29.81F
MERRILL        CLOUDY    27  22  79 S3        29.81F
$$

WIZ013-073-290500-
NORTHEAST WISCONSIN

CITY           SKY/WX    TMP DP  RH WIND       PRES   REMARKS
IRON MOUNTAIN  CLOUDY    28  23  81 SE9       29.84F
MARINETTE      CLOUDY    30  21  69 S8        29.88F
OCONTO         CLOUDY    31  24  78 MISG      29.88F
$$

WIZ017-030-035>037-045-290500-
CENTRAL WISCONSIN

CITY           SKY/WX    TMP DP  RH WIND       PRES   REMARKS
MEDFORD        CLOUDY    26  21  80 S7        29.80F
WAUSAU         CLOUDY    27  21  78 SE8       29.81F
MOSINEE        CLOUDY    28  23  80 E5        29.83F
MARSHFIELD     CLOUDY    28  21  75 E5        29.81F
WISC RAPIDS    CLOUDY    28  20  71 E5        29.84F
STEVENS POINT  CLOUDY    26  20  78 E3        29.84S
WAUPACA        CLOUDY    30  23  74 E6        29.85F
SHAWANO        CLOUDY    32  25  76 SE3       29.87F
CLINTONVILLE   CLOUDY    30  23  74 CALM      29.86F
$$

WIZ038-039-048-051-290500-
FOX VALLEY

CITY           SKY/WX    TMP DP  RH WIND       PRES   REMARKS
NWS GREEN BAY  CLOUDY    31  25  78 SE10      29.88F
APPLETON       CLOUDY    30  23  74 SE8       29.86F
OSHKOSH        CLOUDY    31  22  69 SE7       29.85F
FOND DU LAC    CLOUDY    30  22  72 S12       29.84F
$$

WIZ022-050-052-290500-
EAST CENTRAL WISCONSIN

CITY           SKY/WX    TMP DP  RH WIND       PRES   REMARKS
STURGEON BAY   CLOUDY    30  21  69 S16G22    29.90F
MANITOWOC      CLOUDY    33  26  75 S15G22    29.89F
SHEBOYGAN      CLOUDY    32  24  72 S16       29.87F
$$

LMZ563-521-522-541>543-290500-
LAKESHORE

STATION/POSITION TIME  TEMP    WIND        PRES    VSBY  WAVE
                       AIR SEA DIR/SP/G                  HT/PER
                 (UTC) (F)     (DEG/KT/KT) (MB)    (MI)  (FT/S)
SHEBOYGAN LKSHOR 0400   34     170/ 26/ 30 1012.3F
KEWAUNEE LKSHORE 0400   33     180/ 18/ 25 1011.9F
NORTHPORT PIER   0400   32     160/ 12/ 20 1013.2F
SISTER BAY LKSHO 0300   32     140/ 12/ 15   N/A
CHAMBERS ISLAND  0400   31     150/  4/ 10 1013.2F
MENOMINEE LKSHOR 0400   30     150/ 10     1013.0F
$$


USA.gov is the U.S. government's official web portal to all federal, state and local government web resources and services.